Location: *
(31.2983°S, 151.4094°E)
Time: 22:47:15
(UTC+00:00)

Cosmos 2297 - Pass Details

Date: 24 November 2019
Orbit: 834 x 860 km, 71.0° (Epoch: 05 December)

Event Time Altitude Azimuth Distance (km) Brightness Sun altitude
Exits shadow 13:46:51 28° 159° (SSE) 1,543 5.4 -38.1°
Drops below altitude 10° 13:49:24 10° 159° (SSE) 2,470 6.8 -38.1°
Sets 13:51:51 0° 159° (SSE) 3,411 7.7 -38.1°
